CAPE
27 37 63 65 23 23 9 0 0 0 42 12 42 22 1 0 0 0 0 0 0 0 0 0 0 0 0 0 0 0 0 0 0 0 0 0 0 0 0 0 0 0 0 0 2
50 55 91 72 87 21 10 0 0 0 59 19 37 42 1 0 0 0 0 0 0 0 0 0 0 0 0 0 0 0 0 0 0 0 0 0 0 0 0 0 0 0 0 0 3
40 102 114 102 84 31 11 6 0 0 99 18 43 42 3 0 8 0 0 0 0 0 0 0 0 0 0 0 0 0 0 0 0 0 0 0 0 0 0 0 0 0 0 1 4
33 97 119 127 96 58 39 7 3 1 44 32 64 33 0 0 9 0 0 0 0 0 0 1 6 0 0 0 0 0 0 0 0 0 0 0 0 0 0 0 0 0 0 0 1
32 122 141 153 108 47 45 7 28 0 51 63 70 26 0 0 2 0 0 0 0 0 0 0 0 0 0 0 0 0 0 0 0 0 0 0 0 0 0 0 0 0 0 0 0
123 124 18 125 110 64 45 34 9 1 63 100 62 2 0 1 0 0 0 0 0 0 0 0 1 0 0 0 0 0 0 0 0 0 0 0 0 0 0 0 0 0 0 0 0
213 181 13 59 109 81 33 33 4 17 46 125 58 0 0 0 0 0 0 0 0 0 0 0 0 0 0 0 0 0 0 0 0 0 0 0 0 0 0 0 0 0 0 0 0
205 149 55 111 78 70 19 11 25 16 65 123 55 0 0 0 0 0 0 0 0 0 0 0 0 0 0 0 0 0 0 0 0 0 0 0 0 0 0 0 0 0 0 0 0
53 44 7 11 44 3 3 21 0 21 75 147 27 0 0 0 0 0 0 2 0 0 0 0 0 0 0 0 0 0 0 0 0 0 0 0 0 0 0 0 0 0 0 0 0
7 0 25 26 16 17 0 12 0 38 83 105 2 0 0 0 0 0 0 2 0 3 0 5 0 0 0 0 0 0 0 0 0 0 0 0 0 0 0 0 0 0 0 0 0
22 5 0 13 9 0 35 35 25 34 78 52 0 0 0 0 0 0 0 12 0 2 2 0 1 1 0 0 1 0 0 0 0 0 0 0 0 0 0 0 0 0 0 0 0
16 16 6 21 6 2 5 64 21 10 28 37 0 0 0 0 2 9 16 0 0 2 0 0 0 0 5 13 0 0 0 0 0 0 0 0 0 0 0 0 0 0 0 0 0
0 9 30 36 6 7 0 11 25 33 37 18 0 0 3 0 0 14 34 6 4 0 0 1 0 0 5 1 0 0 0 0 0 0 0 0 0 0 0 0 0 0 0 0 0
0 0 8 32 4 1 1 36 35 24 12 0 2 0 0 1 0 0 29 1 1 0 0 0 0 0 0 0 0 0 0 0 0 0 0 0 0 0 0 0 0 0 0 0 0
0 0 3 1 13 0 0 4 37 27 2 0 0 1 0 0 0 0 0 0 0 0 0 0 0 1 0 0 0 0 0 0 0 0 0 0 0 0 0 0 0 0 0 0 0
0 2 5 5 17 0 0 10 4 4 0 0 1 0 1 1 0 0 0 0 0 0 0 0 0 0 0 0 0 0 0 0 0 0 0 0 0 0 0 0 0 0 0 0 0
3 6 2 24 7 0 13 19 0 0 0 0 0 0 1 3 0 0 0 0 0 0 0 0 0 0 0 0 0 0 0 0 0 0 0 0 0 0 0 0 0 0 0 0 0
13 14 11 46 69 30 5 1 0 0 1 1 1 1 0 4 1 0 0 0 2 3 0 0 0 0 0 0 0 0 0 0 0 0 0 0 0 0 0 0 0 0 0 0 0
26 23 11 8 38 10 0 0 0 1 0 1 1 0 0 1 0 1 0 0 0 0 0 0 0 0 0 0 0 0 0 0 0 0 0 0 0 0 0 0 0 0 0 0 0
16 24 28 31 20 0 0 0 0 0 0 0 0 0 0 0 1 0 1 1 0 0 1 0 0 0 0 0 0 0 0 0 0 0 0 0 0 0 0 0 0 0 0 0 0
10 6 2 12 0 0 0 0 0 0 0 0 0 1 0 0 0 0 0 1 0 0 0 0 0 0 0 0 0 0 0 0 0 0 0 0 0 0 0 0 0 0 0 0 0
12 0 0 2 0 0 0 0 1 0 0 0 0 0 0 1 1 0 0 0 0 0 0 0 0 0 0 0 0 0 0 0 0 0 0 0 0 0 0 0 0 0 0 0 0
0 1 0 3 1 0 0 0 2 3 0 0 0 0 0 0 0 1 0 0 0 0 0 0 0 0 0 0 0 0 0 0 0 0 0 0 0 0 0 0 0 0 0 0 0
9 0 0 1 0 0 0 0 0 1 0 0 0 0 0 0 0 0 0 0 0 0 0 0 0 0 0 0 0 0 0 0 0 0 0 0 0 0 0 0 0 0 0 0 0
0 3 5 0 0 0 0 0 1 0 0 0 0 0 0 0 0 0 0 0 0 0 0 0 0 0 0 0 0 0 0 0 0 0 0 0 0 0 0 0 0 0 0 0 0
0 1 0 0 0 0 0 0 0 1 0 0 0 0 0 0 0 0 0 0 0 0 0 0 0 0 0 0 0 0 0 0 0 0 0 0 0 0 0 0 0 0 0 0 0
1 0 14 4 0 0 0 0 0 0 0 0 0 0 0 0 0 0 0 0 0 0 0 0 0 0 0 0 0 0 0 0 0 0 0 0 0 0 0 0 0 0 0 0 0
CIN
-0 -0 -0 -0 -48 -25 -14 -0 -0 -0 -1 -8 -20 -20 -5 -0 -0 -0 -0 -0 -0 -0 -0 -0 -0 -0 -0 -0 -0 -0 -0 -0 -0 -0 -0 -0 -0 -0 -0 -0 -0 -0 -0 -0 -0
-0 -0 -0 -0 -3 -50 -0 -0 -0 -0 -0 -7 -13 -18 -17 -0 -0 -0 -0 -0 -0 -0 -0 -0 -0 -0 -0 -0 -0 -0 -0 -0 -0 -0 -0 -0 -0 -0 -0 -0 -0 -0 -0 -0 -0
-4 -0 -0 -0 -0 -34 -23 -67 -0 -0 -0 -5 -9 -24 -42 -0 -0 -0 -0 -0 -0 -0 -0 -0 -0 -0 -0 -0 -0 -0 -0 -0 -0 -0 -0 -0 -0 -0 -0 -0 -0 -0 -0 -0 -0
-7 -0 -0 -1 -0 -1 -67 -70 -54 -9 -0 -4 -10 -26 -6 -0 -0 -0 -0 -0 -0 -0 -0 -0 -0 -0 -0 -0 -0 -0 -0 -0 -0 -0 -0 -0 -0 -0 -0 -0 -0 -0 -0 -0 -0
-12 -3 -2 -2 -3 -3 -0 -67 -42 -0 -0 -2 -17 -40 -0 -1 -2 -0 -0 -0 -0 -0 -0 -0 -0 -0 -0 -0 -0 -0 -0 -0 -0 -0 -0 -0 -0 -0 -0 -0 -0 -0 -0 -0 -0
-6 -14 -5 -5 -0 -3 -0 -31 -36 -10 -0 -1 -22 -21 -0 -0 -0 -0 -0 -0 -0 -0 -0 -0 -0 -0 -0 -0 -0 -0 -0 -0 -0 -0 -0 -0 -0 -0 -0 -0 -0 -0 -0 -0 -0
-11 -19 -43 -13 -0 -3 -61 -56 -18 -15 -0 -1 -25 -0 -0 -0 -0 -0 -0 -0 -0 -0 -0 -0 -0 -0 -0 -0 -0 -0 -0 -0 -0 -0 -0 -0 -0 -0 -0 -0 -0 -0 -0 -0 -0
-12 -16 -13 -3 -0 -7 -93 -0 -32 -11 -0 -0 -24 -0 -0 -0 -0 -0 -0 -0 -0 -0 -0 -0 -0 -0 -0 -0 -0 -0 -0 -0 -0 -0 -0 -0 -0 -0 -0 -0 -0 -0 -0 -0 -0
-8 -21 -8 -30 -45 -41 -11 -0 -0 -0 -1 -1 -23 -0 -0 -0 -0 -0 -0 -0 -0 -0 -0 -0 -0 -0 -0 -0 -0 -0 -0 -0 -0 -0 -0 -0 -0 -0 -0 -0 -0 -0 -0 -0 -0
-50 -0 -3 -2 -1 -0 -0 -1 -0 -0 -0 -0 -24 -0 -0 -0 -0 -0 -0 -1 -0 -11 -0 -1 -1 -0 -0 -0 -0 -0 -0 -0 -0 -0 -0 -0 -0 -0 -0 -0 -0 -0 -0 -0 -0
-16 -29 -7 -4 -1 -6 -2 -0 -0 -0 -0 -1 -0 -0 -0 -0 -0 -0 -0 -0 -0 -0 -0 -0 -0 -0 -0 -0 -7 -0 -0 -0 -0 -0 -0 -0 -0 -0 -0 -0 -0 -0 -0 -0 -0
-13 -2 -18 -6 -0 -0 -0 -0 -1 -5 -0 -8 -0 -0 -0 -0 -0 -2 -3 -0 -0 -0 -0 -0 -0 -0 -38 -42 -5 -0 -0 -0 -0 -0 -0 -0 -0 -0 -0 -0 -0 -0 -0 -0 -0
-0 -9 -7 -2 -0 -0 -0 -0 -5 -4 -0 -15 -0 -0 -1 -0 -0 -0 -0 -4 -0 -0 -0 -0 -0 -0 -14 -7 -0 -0 -0 -0 -0 -0 -0 -0 -0 -0 -0 -0 -0 -0 -0 -0 -0
-0 -1 -23 -4 -0 -0 -0 -12 -17 -1 -0 -0 -0 -0 -2 -0 -0 -0 -2 -1 -1 -0 -0 -0 -0 -0 -0 -0 -1 -0 -0 -0 -0 -0 -0 -0 -0 -0 -0 -0 -0 -0 -0 -0 -0
-0 -0 -24 -3 -1 -0 -0 -0 -28 -4 -0 -0 -0 -0 -0 -1 -0 -0 -0 -0 -0 -0 -0 -0 -0 -0 -0 -0 -0 -0 -0 -0 -0 -0 -0 -0 -0 -0 -0 -0 -0 -0 -0 -0 -0
-0 -2 -3 -10 -0 -0 -0 -17 -16 -0 -0 -0 -0 -0 -0 -1 -0 -0 -0 -0 -0 -0 -0 -0 -0 -1 -0 -0 -0 -0 -0 -0 -0 -0 -0 -0 -0 -0 -0 -0 -0 -0 -0 -0 -0
-3 -3 -2 -20 -0 -0 -3 -1 -0 -0 -0 -0 -0 -0 -0 -0 -0 -0 -0 -0 -0 -0 -0 -0 -0 -0 -0 -0 -0 -0 -3 -0 -0 -0 -0 -0 -0 -0 -0 -0 -0 -0 -0 -0 -0
-3 -3 -2 -23 -0 -1 -1 -0 -0 -0 -0 -0 -0 -0 -0 -0 -0 -0 -0 -0 -21 -5 -0 -0 -0 -0 -0 -0 -0 -0 -0 -0 -0 -0 -0 -0 -0 -0 -0 -0 -0 -0 -0 -0 -0
-3 -3 -4 -36 -6 -3 -0 -0 -0 -0 -0 -0 -0 -0 -0 -0 -0 -0 -0 -0 -0 -5 -0 -0 -0 -0 -0 -0 -0 -0 -0 -0 -0 -0 -0 -0 -0 -0 -0 -0 -0 -0 -0 -0 -0
-1 -1 -63 -4 -0 -0 -0 -0 -0 -0 -0 -0 -0 -0 -0 -0 -0 -0 -0 -0 -0 -0 -11 -0 -0 -0 -0 -0 -0 -0 -0 -0 -0 -0 -0 -0 -0 -0 -0 -0 -0 -0 -0 -0 -0
-5 -1 -5 -6 -0 -0 -0 -0 -0 -0 -0 -0 -0 -0 -0 -0 -0 -0 -0 -0 -1 -0 -0 -0 -0 -0 -0 -0 -0 -0 -0 -0 -0 -0 -0 -0 -0 -0 -0 -0 -0 -0 -0 -0 -0
-2 -1 -0 -4 -0 -0 -0 -0 -0 -0 -0 -0 -0 -0 -0 -0 -0 -0 -0 -0 -0 -0 -0 -0 -0 -0 -0 -0 -0 -0 -0 -0 -0 -0 -0 -0 -0 -0 -0 -0 -0 -0 -0 -0 -0
-0 -5 -0 -22 -0 -0 -0 -0 -0 -0 -0 -0 -0 -0 -0 -0 -0 -1 -0 -0 -0 -0 -0 -0 -0 -0 -0 -0 -0 -0 -0 -0 -0 -0 -0 -0 -0 -0 -0 -0 -0 -0 -0 -0 -0
-10 -8 -0 -0 -0 -0 -0 -0 -0 -0 -0 -0 -0 -0 -0 -0 -0 -0 -0 -0 -0 -0 -0 -0 -0 -0 -0 -0 -0 -0 -0 -0 -0 -0 -0 -0 -0 -0 -0 -0 -0 -0 -0 -0 -0
-4 -64 -30 -2 -0 -0 -0 -0 -0 -0 -0 -0 -0 -0 -0 -0 -0 -0 -0 -0 -0 -0 -0 -0 -0 -0 -0 -0 -0 -0 -0 -0 -0 -0 -0 -0 -0 -0 -0 -0 -0 -0 -0 -0 -0
-0 -0 -0 -9 -0 -0 -0 -0 -0 -0 -0 -0 -0 -0 -0 -0 -0 -0 -0 -0 -0 -0 -0 -0 -0 -0 -0 -0 -0 -0 -0 -0 -0 -0 -0 -0 -0 -0 -0 -0 -0 -0 -0 -0 -0
-0 -0 -33 -94 -0 -0 -0 -0 -0 -0 -0 -0 -0 -0 -0 -0 -0 -0 -0 -0 -0 -0 -0 -0 -0 -0 -0 -0 -0 -0 -0 -0 -0 -0 -0 -0 -0 -0 -0 -0 -0 -0 -0 -0 -0
Wind_Speed
32 38 44 48 48 50 51 50 50 48 45 44 39 37 35 31 28 31 41 32 29 21 22 16 22 24 22 25 25 23 28 30 26 24 22 15 15 13 13 11 11 9 14 12 14
31 39 48 51 49 52 51 50 50 50 47 41 40 36 34 30 35 43 32 26 24 23 24 24 26 23 24 25 26 27 31 29 25 22 21 17 17 15 15 12 13 9 10 11 14
34 41 47 51 52 50 52 49 50 47 46 40 39 36 32 29 40 47 34 28 27 25 27 25 26 25 28 26 29 27 31 25 22 22 21 19 18 15 20 19 15 7 5 7 11
38 43 45 48 54 52 54 51 56 54 48 41 36 35 32 35 50 37 33 30 25 22 27 26 25 26 29 26 28 27 32 23 22 21 21 20 19 19 22 17 17 9 5 8 11
39 45 47 47 50 52 56 51 53 47 47 41 34 34 35 47 47 22 27 28 26 27 29 27 28 29 31 26 22 29 24 25 23 21 21 22 23 21 23 19 16 7 3 6 9
41 46 48 46 51 54 53 51 49 50 44 39 34 34 39 56 40 26 22 27 27 28 29 29 28 24 28 25 23 23 26 30 26 24 22 24 25 22 24 14 14 6 3 2 6
42 43 44 45 48 53 55 50 48 55 55 38 35 35 42 46 31 27 23 26 25 26 27 25 24 25 23 22 20 19 17 21 23 23 24 24 27 28 21 14 14 10 7 4 4
35 34 34 41 46 53 51 48 48 48 43 37 36 34 43 32 26 27 25 24 22 20 23 21 20 23 24 19 19 19 22 18 17 18 24 24 36 25 21 20 19 14 10 7 5
27 32 35 38 44 49 45 52 49 51 42 35 36 35 39 30 34 29 27 28 24 21 20 19 20 26 25 25 24 25 21 22 22 25 24 24 30 25 21 24 23 19 14 12 10
29 32 33 35 41 47 48 47 52 45 40 34 34 35 34 43 33 31 27 25 26 24 26 26 25 32 33 33 28 23 24 22 24 21 25 20 26 32 24 24 26 25 16 14 12
32 37 36 35 34 41 44 46 50 49 48 45 40 39 36 31 27 33 29 26 26 31 37 31 38 42 36 33 26 26 26 25 26 21 22 24 19 38 41 28 28 27 24 16 15
32 33 31 30 36 44 41 57 57 42 46 40 36 35 29 32 32 33 29 32 35 40 35 37 45 37 34 32 30 28 30 33 25 25 26 31 35 35 35 39 34 31 27 24 19
29 30 25 27 31 39 44 53 40 38 41 38 38 41 31 34 36 37 35 32 37 38 39 44 35 31 35 32 31 32 33 30 30 27 32 35 43 43 39 33 36 30 30 28 22
28 29 24 23 32 38 46 47 44 41 39 43 35 39 35 32 36 34 35 29 34 40 37 35 31 35 30 32 30 34 28 27 24 26 30 21 36 30 21 17 19 25 24 27 26
28 26 28 25 32 42 37 43 43 40 53 37 41 33 38 39 35 38 32 32 38 35 33 36 36 36 30 32 27 30 19 22 24 28 30 28 32 28 25 22 18 14 20 21 21
32 30 28 27 35 36 33 40 39 49 54 37 33 41 43 38 38 34 32 27 29 31 29 30 25 28 33 26 25 18 20 22 25 29 38 34 31 38 30 27 25 22 17 18 18
33 32 31 26 38 32 27 46 53 57 33 42 45 41 45 43 38 43 41 37 40 42 42 32 31 28 24 26 22 26 26 31 35 36 39 28 31 41 27 30 25 26 24 15 15
26 30 34 32 31 28 28 53 60 47 42 29 39 45 44 41 41 42 40 42 36 36 37 42 44 36 30 32 32 30 32 33 38 39 36 29 37 33 30 30 34 27 25 23 14
20 26 31 33 32 29 34 54 55 45 42 32 40 48 41 42 37 40 43 44 37 34 39 42 38 29 28 26 24 33 37 27 31 30 36 35 35 37 33 32 29 25 23 19 18
23 29 31 28 27 24 35 43 49 41 40 42 39 44 48 40 41 44 41 38 36 35 28 28 34 27 26 22 26 28 23 33 32 39 42 36 37 37 33 29 23 22 23 23 23
22 32 28 24 23 30 39 40 40 39 45 45 46 41 47 45 44 45 42 35 35 32 29 24 27 28 24 34 33 29 32 30 30 34 38 41 37 25 28 27 23 18 16 20 21
22 32 26 25 31 32 35 37 35 44 42 41 43 39 46 47 43 40 41 31 32 29 28 22 22 31 32 23 28 29 30 28 35 37 38 38 43 22 20 18 18 15 16 18 17
28 27 24 25 36 36 32 37 37 43 46 38 37 39 39 41 37 40 37 29 32 33 29 24 23 28 27 31 29 32 29 31 29 27 34 37 41 20 21 21 18 15 21 16 15
26 30 28 30 30 32 32 39 37 44 38 37 38 35 39 42 30 39 32 36 35 30 30 28 28 32 37 33 24 31 29 27 27 33 36 36 38 25 21 20 18 20 21 21 23
25 32 32 35 35 35 29 39 45 43 34 34 36 39 38 39 36 34 33 34 34 33 30 31 31 31 29 26 24 30 31 30 33 31 34 34 35 29 24 25 26 28 32 30 32
25 28 29 30 27 35 34 38 42 39 38 43 45 41 39 36 39 35 33 34 36 36 34 30 32 28 30 26 26 28 26 28 30 30 32 31 40 30 33 34 34 34 36 37 37
19 20 26 29 30 31 34 31 42 37 39 37 39 37 41 42 29 26 24 24 27 34 32 30 26 29 37 30 28 35 30 29 31 33 30 37 29 29 30 31 33 35 37 38 36
Wind_Direction
271 262 254 249 246 245 244 244 245 250 242 238 237 237 236 241 243 244 241 249 251 255 253 255 254 251 252 254 255 260 256 253 260 268 275 290 286 291 301 313 317 337 323 352 99
271 261 251 243 243 241 242 243 243 248 239 236 234 233 233 235 239 240 248 249 250 247 248 246 245 249 249 252 252 249 252 256 265 271 274 284 279 280 284 292 298 332 356 53 102
268 260 251 246 241 241 238 243 242 244 237 233 230 228 227 230 239 240 241 245 244 245 246 246 246 246 247 250 248 249 252 261 267 272 275 277 277 280 270 275 291 314 33 72 105
267 260 253 247 239 237 237 237 231 235 238 229 224 222 222 225 234 245 237 237 240 241 242 240 242 242 245 249 249 255 252 262 268 273 271 270 276 271 266 288 295 319 93 104 122
266 257 251 246 240 236 232 234 234 240 229 223 218 215 217 226 231 255 231 227 235 236 237 236 237 240 244 251 253 252 255 260 264 273 271 269 267 269 269 278 294 320 78 119 128
262 255 250 248 238 232 230 231 231 234 226 217 211 208 218 228 233 251 232 223 230 231 236 237 241 241 248 249 254 255 256 254 257 267 271 268 266 271 273 277 287 291 291 143 141
256 252 249 245 235 230 226 225 228 229 221 210 205 208 223 228 232 238 223 223 228 230 233 240 249 238 247 246 254 260 257 253 260 266 268 267 265 262 277 275 277 279 276 263 173
256 251 250 241 234 229 226 228 232 227 212 204 202 214 227 230 234 224 220 221 226 235 235 245 245 243 246 250 248 252 257 257 261 268 266 263 258 269 270 271 270 273 274 266 229
253 251 249 245 236 226 228 225 225 219 206 197 205 219 223 227 223 220 215 219 223 232 239 241 241 240 243 233 243 248 257 255 260 259 263 264 263 270 273 267 268 270 270 269 267
251 243 235 243 237 230 227 227 220 212 204 200 215 219 226 219 217 216 218 217 222 224 233 235 237 236 234 231 238 244 252 258 256 266 265 274 272 261 270 269 267 269 272 269 266
242 236 243 249 236 223 225 217 214 205 201 207 211 218 218 206 206 216 213 214 222 226 227 233 231 232 231 234 247 245 248 257 262 270 274 271 281 258 255 267 267 271 271 269 268
241 243 242 248 235 228 228 215 217 206 194 213 209 215 214 190 210 210 204 219 221 225 227 231 233 234 235 241 246 247 250 256 264 269 271 271 269 266 264 260 265 267 270 270 273
242 242 249 248 245 230 226 219 207 189 203 216 212 213 207 198 209 208 206 223 217 222 224 229 231 235 234 238 243 248 250 257 261 273 270 273 265 258 260 268 263 267 268 271 272
241 239 249 247 237 226 219 219 200 195 206 218 208 215 215 211 215 204 214 222 225 223 226 236 234 232 235 239 242 248 258 258 260 268 269 273 269 274 276 261 263 262 263 266 269
244 246 241 244 230 217 220 203 197 205 212 208 212 216 214 213 195 207 212 229 222 222 228 234 230 230 235 237 240 253 255 255 264 265 270 270 273 277 282 279 279 259 258 255 254
241 241 239 246 236 226 234 190 196 206 216 211 205 207 201 210 201 199 215 230 225 218 236 236 233 233 239 239 246 241 251 262 268 267 265 265 268 268 275 282 286 286 278 263 243
236 237 237 241 226 227 228 195 207 212 213 212 209 202 201 208 206 197 208 215 217 218 223 230 231 242 233 233 239 247 240 254 258 258 262 272 266 269 280 280 290 290 289 279 256
240 234 230 230 228 232 234 207 212 208 206 211 202 197 211 200 206 201 205 214 223 229 221 226 233 231 230 240 238 237 245 251 256 258 266 269 268 277 282 285 279 287 294 297 281
241 237 227 227 228 220 220 210 210 203 204 196 189 197 207 206 206 202 208 213 219 219 226 228 239 232 233 244 226 241 247 257 261 268 267 268 275 278 281 284 287 285 292 299 300
235 228 228 225 223 225 223 220 212 210 200 193 197 204 204 207 197 205 206 215 218 222 228 232 236 237 237 239 248 244 241 251 257 260 264 269 273 274 281 290 295 294 284 292 298
237 220 229 222 228 231 224 220 216 209 201 203 200 204 205 200 205 203 200 216 214 210 226 221 238 237 233 241 239 244 241 253 260 261 265 269 273 286 289 292 294 296 302 304 303
236 221 224 223 222 231 226 219 216 204 206 212 210 210 204 205 215 215 212 224 202 203 214 229 241 234 233 254 250 245 246 245 255 260 262 270 268 290 298 305 305 306 307 307 311
224 224 228 232 226 229 227 219 215 201 200 203 206 213 208 205 217 218 216 222 202 206 205 219 237 233 241 255 251 242 246 245 258 271 262 264 271 276 288 299 300 296 307 307 309
223 220 224 230 231 227 225 216 210 207 207 207 210 205 203 211 221 215 215 217 212 211 224 229 238 240 242 254 243 246 241 246 245 259 263 264 273 279 285 288 298 300 301 298 300
233 224 225 223 226 223 226 212 208 206 215 208 209 206 198 208 216 220 217 217 220 217 225 229 238 244 253 256 247 250 247 242 245 249 259 268 270 273 280 285 287 291 293 293 292
236 228 227 227 229 223 225 216 209 209 207 211 210 204 204 206 216 210 213 213 217 219 225 231 242 244 250 256 254 256 252 244 242 244 259 268 276 279 280 282 284 288 289 287 289
258 252 229 224 224 222 223 218 211 212 220 220 211 201 213 221 228 219 219 218 223 216 220 228 240 243 249 253 258 260 248 246 251 254 253 265 244 282 281 282 282 287 289 290 291